Regional Weather Roundup
Issued by NWS

Home | Current Version | Previous Version | Graphics & Text | Print | Product List | Glossary On
Versions: 1 2 3 4 5 6 7 8 9 10 11 12 13 14 15 16 17 18 19 20 21 22 23 24 25 26 27 28 29 30 31 32 33 34 35 36 37 38 39 40 41 42 43 44 45 46 47 48 49 50
413
ASUS45 KCYS 151610
RWRWY

WYOMING REGIONAL WEATHER ROUNDUP
NATIONAL WEATHER SERVICE CHEYENNE WY
900 AM MST SUN JAN 15 2017

NOTE:  "FAIR" INDICATES FEW OR NO CLOUDS BELOW 12,000 FEET
WITH NO SIGNIFICANT WEATHER AND/OR OBSTRUCTIONS TO VISIBILITY.

WYZ001-151700-
YELLOWSTONE NATIONAL PARK

CITY           SKY/WX    TMP DP  RH WIND       PRES   REMARKS
LK YELLOWSTONE   N/A    -19 -21  90 CALM      30.16S
W YELLOWSTONE  NOT AVBL

$$
WYZ002>013-054>058-071-098>099-151700-
NORTHERN WYOMING

CITY           SKY/WX    TMP DP  RH WIND       PRES   REMARKS
JACKSON        PTCLDY   -18 -22  83 CALM      30.24S
CODY           FAIR      13   2  61 CALM      30.09F
GREYBULL       FAIR     -17 -22  78 SE8       30.20S WCI -35
WORLAND        FAIR     -10 -13  86 SE7       30.17R WCI -25
SHERIDAN       FAIR       8  -5  55 SW9       30.09S WCI  -5
BUFFALO        FAIR      26  -2  29 W7        30.07S WCI  18
GILLETTE       FAIR      15   6  67 CALM      30.09F
HULETT         FAIR      21  10  63 SW3       30.11F
NEWCASTLE      FAIR      16   9  73 CALM      30.14F

$$
WYZ014>020-022>026-101>103-151700-
CENTRAL WYOMING

CITY           SKY/WX    TMP DP  RH WIND       PRES   REMARKS
BIG PINEY      FOG      -17 -20  86 CALM      30.13S VSB 3/4
PINEDALE       FAIR     -17 -24  70 W3        30.13S
DUBOIS         NOT AVBL
LANDER         FAIR       3   0  87 CALM      30.12S
RIVERTON       FAIR      -7 -10  87 N6        30.14S WCI -20
CASPER         FAIR      20  16  84 SW14      30.11R WCI   7
DOUGLAS        FAIR      19  15  84 NW6       30.13S WCI  11

$$
WYZ021-027>030-104>119-151700-
SOUTHERN WYOMING

CITY           SKY/WX    TMP DP  RH WIND       PRES   REMARKS
EVANSTON       HAZE       2  -3  80 N6        30.11R VSB 1/4 WCI  -9
ROCK SPRINGS   SNOW       7   3  84 SW9       30.13R VSB<1/4 WCI  -7
RAWLINS        FOG       16  13  88 E5        30.11S VSB 1/4 WCI   9
LARAMIE        FAIR      10   4  76 S7        30.08S WCI  -1
CHEYENNE       CLOUDY    26  19  74 W3        30.09R
TORRINGTON     FAIR      22  18  85 CALM      30.12S

$$




USA.gov is the U.S. government's official web portal to all federal, state and local government web resources and services.